DateTimeUTC,F1_A11,F1_S11,BsB_S11,BsG_S11,BsR_S11,BbsB_S11,BbsG_S11,BbsR_S11,BaB_A11,BaG_A11,BaR_A11,Tu_S11,T_S11,Uu_S11,U_S11,P_S11,T1_A11
2021-12-14T13:00:00Z,00000200,21000000,,,,,,,-000.02,-000.44,0000.15,19.1,26.3,,00.0,0644.1,31.0
2021-12-14T13:01:00Z,00000200,21000000,,,,,,,-000.13,0000.13,-000.03,19.0,26.3,,00.0,0644.1,31.0
2021-12-14T13:02:00Z,00000200,21000000,,,,,,,0000.27,0000.36,0000.12,19.0,26.3,,00.0,0644.1,31.0
2021-12-14T13:03:00Z,00000200,61000000,,,,,,,0000.45,0000.65,0000.43,19.0,26.3,,00.0,0644.1,31.0
2021-12-14T13:04:00Z,00000200,41000000,-000.21,0000.31,-000.19,-000.41,-000.10,0000.08,-000.04,-000.50,-000.04,19.2,26.1,,00.0,0644.9,31.0
2021-12-14T13:05:00Z,00000200,01000000,0000.71,0000.31,-000.10,-000.44,0000.07,-000.01,-000.12,-000.12,-000.01,19.3,26.0,,00.0,0645.0,31.1
2021-12-14T13:06:00Z,00000200,01000000,0000.52,-000.01,-000.08,0000.53,-000.29,0000.05,-000.05,0000.15,0000.04,19.4,26.1,,00.0,0645.0,31.1
2021-12-14T13:07:00Z,00000200,01000000,-000.03,0000.28,0000.33,0000.51,-000.31,0000.07,-000.31,0000.10,-000.55,19.5,26.1,,00.0,0645.0,31.1
2021-12-14T13:08:00Z,00000200,01000000,0000.11,0000.02,0000.03,-000.04,0000.34,-000.36,0000.17,0000.03,0000.37,19.5,26.1,,00.0,0645.0,31.1
2021-12-14T13:09:00Z,00000200,01000000,0000.00,0000.51,0000.01,0000.23,0000.05,0000.05,-000.12,-000.31,-000.30,19.6,26.1,,00.0,0645.0,31.1
2021-12-14T13:10:00Z,00000200,01000000,-000.66,0000.29,0000.04,0000.56,0000.02,-000.19,-000.53,-000.47,-000.35,19.6,26.1,,00.0,0645.0,31.1
2021-12-14T13:11:00Z,00000200,01000000,0000.03,-000.22,-000.03,-000.09,0000.26,0000.30,-000.25,-000.49,-000.06,19.7,26.2,,00.0,0645.0,31.1
2021-12-14T13:12:00Z,00000200,01000000,-000.44,0000.04,0000.13,0000.06,-000.07,-000.16,-000.17,0000.16,-000.27,19.6,26.2,,00.0,0645.0,31.1
2021-12-14T13:13:00Z,00000200,01000000,0001.18,-000.29,0000.25,0000.08,-000.21,0000.19,-000.19,-000.35,0000.33,19.6,26.2,,00.0,0645.0,31.1
2021-12-14T13:14:00Z,00000200,01000000,-000.17,-000.13,0000.20,-000.30,0000.01,0000.28,-000.32,-000.05,-000.31,19.5,26.1,,00.0,0644.9,31.0
2021-12-14T13:15:00Z,00000200,01000000,-000.83,-000.02,0000.16,-000.18,-000.27,0000.10,-000.16,-000.36,-000.11,19.4,26.1,,00.0,0644.9,31.0
2021-12-14T13:16:00Z,00000200,01000000,-000.53,-000.35,0000.16,0000.32,-000.16,0000.26,-000.15,0000.08,-000.45,19.4,26.0,,00.0,0644.9,31.0
2021-12-14T13:17:00Z,00000200,01000000,0000.87,0000.12,0000.48,0000.05,-000.15,0000.03,-000.01,-000.57,0000.32,19.4,26.0,,00.0,0644.9,31.0
2021-12-14T13:18:00Z,00000200,01000000,0000.35,0000.21,-000.00,0000.23,-000.09,-000.15,-000.02,0000.24,-000.19,19.4,26.0,,00.0,0644.9,31.1
2021-12-14T13:19:00Z,00000200,01000000,0000.50,0000.03,0000.23,-000.10,-000.12,-000.20,-000.07,-000.01,0000.01,19.4,26.0,,00.0,0644.9,31.1
2021-12-14T13:20:00Z,00000200,01000000,-000.22,-000.02,-000.14,0000.19,0000.15,0000.10,0000.34,0000.00,0000.11,19.5,26.0,,00.0,0644.9,31.1
2021-12-14T13:21:00Z,00000200,01000000,0000.35,0000.21,0000.12,0000.20,0000.21,-000.16,-000.13,0000.42,0000.33,19.5,26.1,,00.0,0644.9,31.1
2021-12-14T13:22:00Z,00000200,01000000,-000.17,-000.09,-000.07,-000.03,-000.32,0000.08,0000.14,-000.32,-000.29,19.6,26.1,,00.0,0644.9,31.1
2021-12-14T13:23:00Z,00000200,01000000,0000.29,0000.28,0000.12,-000.14,0000.08,0000.08,-000.05,0000.24,0000.04,19.6,26.1,,00.0,0644.9,31.1
2021-12-14T13:24:00Z,00000200,01000000,-000.04,-000.06,-000.04,0000.28,-000.07,-000.22,0000.62,0000.23,0000.09,19.7,26.1,,00.0,0644.9,31.1
2021-12-14T13:25:00Z,00000200,01000000,0000.39,0000.01,0000.00,-000.22,-000.08,0000.20,0000.06,0000.86,0000.04,19.7,26.1,,00.0,0644.9,31.1
2021-12-14T13:26:00Z,00000200,01000000,0000.30,0000.23,0000.14,0000.01,-000.09,-000.08,0000.36,0000.11,0000.75,19.7,26.1,,00.0,0644.8,31.1
2021-12-14T13:27:00Z,00000200,01000000,0000.22,0000.33,-000.10,-000.35,-000.03,-000.05,0000.78,0000.09,-000.09,19.6,26.2,,00.0,0644.8,31.1
2021-12-14T13:28:00Z,00000200,01000000,-000.60,-000.24,-000.02,0000.10,-000.15,0000.18,0000.08,0000.33,0000.50,19.5,26.1,,00.0,0644.8,31.0
2021-12-14T13:29:00Z,00000200,01000000,0000.59,0000.16,-000.19,-000.01,0000.08,0000.05,0000.17,0000.22,0000.08,19.5,26.1,,00.0,0644.7,31.0
2021-12-14T13:30:00Z,00000200,01000000,-000.73,0000.15,-000.03,0000.90,0000.05,-000.08,0000.52,0000.59,0000.18,19.4,26.0,,00.0,0644.7,31.0
2021-12-14T13:31:00Z,00000200,01000000,0000.49,0000.39,0000.07,0000.16,-000.01,-000.02,0000.05,-000.02,-000.05,19.3,26.0,,00.0,0644.7,31.0
2021-12-14T13:32:00Z,00000200,01000000,-000.16,0000.07,-000.22,-000.22,-000.12,0000.04,-000.05,-000.19,0000.24,19.3,26.0,,00.0,0644.7,31.0
2021-12-14T13:33:00Z,00000200,01000000,-000.89,0000.24,0000.00,0000.04,-000.26,-000.02,0000.46,0000.48,0000.36,19.4,26.0,,00.0,0644.6,31.0
2021-12-14T13:34:00Z,00000200,01000000,0000.31,0000.43,0000.12,-000.17,0000.04,-000.08,0000.32,0000.10,0000.07,19.4,26.0,,00.0,0644.6,31.1
2021-12-14T13:35:00Z,00000200,01000000,-000.38,-000.25,0000.05,0000.13,-000.08,-000.07,0000.33,0000.23,0000.24,19.5,26.0,,00.0,0644.6,31.1
2021-12-14T13:36:00Z,00000200,01000000,0000.21,-000.07,0000.07,0000.39,-000.14,-000.08,0000.33,0000.17,0000.26,19.5,26.0,,00.0,0644.6,31.1
2021-12-14T13:37:00Z,00000200,01000000,0000.33,0000.06,0000.13,0000.12,0000.07,-000.00,-000.01,0000.43,0000.45,19.6,26.0,,00.0,0644.6,31.1
2021-12-14T13:38:00Z,00000200,01000000,0000.17,0000.20,0000.09,-000.15,-000.19,0000.02,0000.06,0000.26,-000.18,19.6,26.0,,00.0,0644.6,31.1
2021-12-14T13:39:00Z,00000200,01000000,0000.01,0000.19,0000.18,0000.38,0000.04,-000.22,0000.09,0000.11,-000.16,19.7,26.1,,00.0,0644.6,31.1
2021-12-14T13:40:00Z,00000200,01000000,0000.74,0000.15,0000.29,-000.42,0000.01,0000.16,0000.08,0000.03,0000.14,19.7,26.1,,00.0,0644.6,31.1
2021-12-14T13:41:00Z,00000200,01000000,0000.09,-000.19,0000.12,0000.02,0000.07,-000.04,-000.26,-000.20,-000.41,19.8,26.1,,00.0,0644.6,31.1
2021-12-14T13:42:00Z,00000200,01000000,0000.12,-000.43,-000.02,-000.24,0000.11,0000.15,0000.27,-000.05,0000.21,19.8,26.1,,00.0,0644.6,31.1
2021-12-14T13:43:00Z,00000200,01000000,0000.50,0000.00,-000.15,-000.05,-000.37,-000.03,-000.19,-000.41,-000.04,19.7,26.1,,00.0,0644.6,31.1
2021-12-14T13:44:00Z,00000200,01000000,-000.40,0000.09,0000.09,0000.02,0000.07,-000.05,0000.15,0000.46,-000.10,19.7,26.1,,00.0,0644.5,31.1
2021-12-14T13:45:00Z,00000200,01000000,-000.21,0000.19,0000.03,-000.12,-000.10,-000.25,-000.24,-000.25,-000.14,19.6,26.1,,00.0,0644.5,31.0
2021-12-14T13:46:00Z,00000200,01000000,-000.13,0000.16,0000.18,-000.28,-000.10,0000.30,-000.34,-000.40,0000.13,19.6,26.1,,00.0,0644.5,31.0
2021-12-14T13:47:00Z,00000200,01000000,0000.09,0000.21,0000.34,-000.35,-000.05,0000.22,0000.42,0000.15,-000.16,19.5,26.0,,00.0,0644.5,31.0
2021-12-14T13:48:00Z,00000200,01000000,-000.02,0000.18,0000.27,0000.50,0000.16,0000.30,-000.53,-000.16,-000.27,19.5,26.0,,00.0,0644.5,31.0
2021-12-14T13:49:00Z,00000200,01000000,0000.82,0000.04,0000.09,0000.03,-000.20,-000.15,-000.34,-000.13,0000.22,19.6,26.0,,00.0,0644.5,31.1
2021-12-14T13:50:00Z,00000200,01000000,0000.13,-000.09,0000.31,0000.55,0000.10,-000.01,0000.09,-000.11,-000.17,19.7,26.1,,00.0,0644.5,31.1
2021-12-14T13:51:00Z,00000200,01000000,0000.63,0000.01,0000.17,-000.11,0000.06,0000.07,-000.17,0000.16,0000.05,19.7,26.1,,00.0,0644.5,31.1
2021-12-14T13:52:00Z,00000200,01000000,0000.01,0000.34,0000.19,-000.17,-000.45,0000.46,-000.28,-000.40,-000.07,19.8,26.1,,00.0,0644.5,31.1
2021-12-14T13:53:00Z,00000200,01000000,-000.17,0000.41,0000.23,-000.45,0000.07,0000.14,-000.25,-000.09,0000.02,19.8,26.1,,00.0,0644.5,31.1
2021-12-14T13:54:00Z,00000200,01000000,-000.09,0000.17,-000.17,0000.10,-000.09,-000.13,0000.37,0000.38,-000.09,19.9,26.2,,00.0,0644.5,31.1
2021-12-14T13:55:00Z,00000200,01000000,0000.21,0000.19,0000.32,0000.01,0000.03,0000.01,-000.37,-000.79,-000.24,19.9,26.2,,00.0,0644.5,31.1
2021-12-14T13:56:00Z,00000200,01000000,0000.85,0000.10,0000.13,0000.05,0000.11,0000.37,-000.08,-000.06,-000.36,19.9,26.2,,00.0,0644.5,31.2
2021-12-14T13:57:00Z,00000200,41000000,,,,,,,0000.18,0000.27,0000.48,20.0,26.2,,00.0,0644.4,31.2
2021-12-14T13:58:00Z,00000200,61000000,,,,,,,-000.35,-000.38,-000.41,19.6,26.4,,00.0,0643.6,31.1
2021-12-14T13:59:00Z,00000200,21000000,,,,,,,-000.52,-000.34,-000.13,19.6,26.5,,00.0,0643.5,31.1
